Location: ???????
(55.7027°N, 37.3832°E)
Time: 19:18:54
(UTC+00:00)

Cosmos 1315 Rocket - Pass Details

Date: 14 April 2026
Orbit: 490 x 509 km, 81.2° (Epoch: 19 May)

Event Time Altitude Azimuth Distance (km) Brightness Sun altitude
Exits shadow 21:15:34 24° 284° (WNW) 1,081 4.4 -24.6°
Maximum altitude 21:16:03 25° 297° (WNW) 1,061 4.5 -24.6°
Drops below altitude 10° 21:19:14 10° 354° (N) 1,726 6.4 -24.6°
Sets 21:21:39 0° 8° (N) 2,611 7.6 -24.6°
